Regional Weather Roundup
Issued by NWS

Home | Current Version | Previous Version | Text Only | Print | Product List | Glossary On
Versions: 1 2 3 4 5 6 7 8 9 10 11 12 13 14 15 16 17 18 19 20 21 22 23 24 25 26 27 28 29 30 31 32 33 34 35 36 37 38 39 40 41 42 43 44 45 46 47 48 49 50
000
ASUS45 KPSR 250310
RWRAZ

ARIZONA HOURLY REGIONAL WEATHER ROUNDUP
NATIONAL WEATHER SERVICE PHOENIX AZ
800 PM MST TUE MAY 24 2016

NOTE: FAIR INDICATES FEW OR NO CLOUDS BELOW 12,000 FEET WITH NO
SIGNIFICANT WEATHER AND/OR OBSTRUCTIONS TO VISIBILITY.

AZZ001>003-036-250400-
NORTHWEST ARIZONA

CITY           SKY/WX    TMP DP  RH WIND       PRES   REMARKS
BULLHEAD CITY  MOCLDY    82  27  13 S16       29.81S
KINGMAN        PTCLDY    67  27  22 SW9       29.93S
$$

AZZ004>008-015-016-018-250400-
NORTH CENTRAL ARIZONA

CITY           SKY/WX    TMP DP  RH WIND       PRES   REMARKS
GRAND CANYON   CLEAR     55  11  17 SW10      30.06R
WILLIAMS       PTCLDY    54  16  22 S14G20    30.14R
PRESCOTT       CLEAR     61  20  20 S10       30.04R
FLAGSTAFF      CLEAR     51  26  37 SW12      30.09R
PAYSON         CLEAR     63  23  22 CALM      30.08R
PAGE           CLEAR     70  13  11 SW14G22   29.89R
$$

AZZ009>014-017-250400-
NORTHEAST ARIZONA

CITY           SKY/WX    TMP DP  RH WIND       PRES   REMARKS
WINSLOW        CLEAR     64  21  19 S10       30.01R
SAINT JOHNS    CLEAR     62  12  14 SW6       30.06R
WINDOW ROCK    CLEAR     59   9  13 SW12      30.08R
SHOW LOW       CLEAR     55  14  19 SW8       30.11R
$$

AZZ023-250400-
GREATER PHOENIX AREA

CITY           SKY/WX    TMP DP  RH WIND       PRES   REMARKS
PHOENIX        CLEAR     83  27  13 W13       29.85R
BUCKEYE        CLEAR     75  25  15 W10       29.88R
GLENDALE       CLEAR     82  27  13 SW8       29.87R
LUKE AFB       CLEAR     80  26  13 W8        29.85R
DEER VALLEY    CLEAR     79  22  12 W9        29.87R
SCOTTSDALE     CLEAR     81  22  11 W6        29.89R
MESA-GATEWAY   CLEAR     82  32  16 W8        29.87R
CHANDLER       CLEAR     82  32  16 W9        29.86R
$$

AZZ027-028-250400-
SOUTHWEST MARICOPA COUNTY AND PINAL COUNTY

CITY           SKY/WX    TMP DP  RH WIND       PRES   REMARKS
CASA GRANDE    CLEAR     81  32  17 NW7       29.89R
GILA BEND      FAIR      80  25  13 W9        29.86R
$$

AZZ503-504-507>509-250400-
SOUTHEAST ARIZONA

CITY           SKY/WX    TMP DP  RH WIND       PRES   REMARKS
TUCSON         CLEAR     81  23  11 W9        29.96R
DAVIS-MONTHAN  CLEAR     80  23  12 W9        29.94R
RYAN FIELD     CLEAR     79  28  15 W8        29.95R
NOGALES        CLEAR     73  22  14 SW7       30.02R
SIERRA VISTA   CLEAR     71  18  13 S10       30.07R
DOUGLAS        CLEAR     73  23  15 W13       30.03R
SAFFORD        CLEAR     79  16   9 NW13      29.92R
$$

AZZ020-021-025-026-031-250400-
SOUTHWEST ARIZONA

CITY           SKY/WX    TMP DP  RH WIND       PRES   REMARKS
YUMA           PTCLDY    77  41  27 NW13      29.87R
$$

CAZ031-033-041-043-047-048-061-250400-
SOUTHERN CALIFORNIA

CITY           SKY/WX    TMP DP  RH WIND       PRES   REMARKS
DOWNTOWN L.A.  PTCLDY    62  51  67 W7        30.02R
L.A. AIRPORT   MOCLDY    61  53  75 SW13      30.03R
SAN DIEGO      MOCLDY    64  52  64 NW7       30.06R
BURBANK        PTCLDY    59  51  75 S10       30.01R
ONTARIO        MOCLDY    60  49  66 SW15G22   30.01R
RIVERSIDE      CLEAR     62  50  64 W12       30.00R
PALM SPRINGS   PTCLDY    76  40  27 SW5       29.86R
EL CENTRO NAS  MOCLDY    73  41  31 W30G38    29.90R
IMPERIAL       MOCLDY    73  43  33 W23G33    29.86R
BLYTHE         MOCLDY    77  37  23 SW16      29.85R
NEEDLES        MOCLDY    83  28  13 S14       29.81R
$$

NVZ020-UTZ003-250400-
SOUTHERN NEVADA-UTAH

CITY           SKY/WX    TMP DP  RH WIND       PRES   REMARKS
LAS VEGAS      PTCLDY    75  28  17 S9G17     29.81R
SALT LAKE CITY MOCLDY    60  39  45 SW3       29.90R
$$

NMZ009-TXZ055-250400-
NEW MEXICO-WEST TEXAS

CITY           SKY/WX    TMP DP  RH WIND       PRES   REMARKS
ALBUQUERQUE    PTCLDY    75  12   9 SW13      29.97R
EL PASO        MOCLDY    84   8   5 W17G23    29.95R
$$


........................KEY........................
SKY/WX - SKY CONDITION/WEATHER
TMP    - TEMPERATURE IN FAHRENHEIT
DP     - DEW POINT IN FAHRENHEIT
RH     - RELATIVE HUMIDITY IN PERCENT
WIND   - DIRECTION AND SPEED IN MILES PER HOUR (MPH)
VRB    - VARIABLE WIND DIRECTION
PRES   - MEAN SEA LEVEL PRESSURE IN INCHES OF MERCURY
         F - FALLING PRESSURE   R - RISING PRESSURE
         S - STEADY PRESSURE
VSB    - VISIBILITY IN MILES
HX     - HEAT INDEX IN FAHRENHEIT
WCI    - WIND CHILL INDEX IN FAHRENHEIT
TC     - TEMPERATURE IN CELSIUS WHICH IS ALSO KNOWN AS
         TEMPERATURE IN CENTIGRADE
AFB    - AIR FORCE BASE
         LUKE AFB IS LUKE AIR FORCE BASE
         DAVIS-MONTHAN IS DAVIS-MONTHAN AIR FORCE BASE
NAS    - NAVAL AIR STATION
         EL CENTRO NAS IS EL CENTRO NAVAL AIR STATION
N/A    - NOT AVAILABLE




USA.gov is the U.S. government's official web portal to all federal, state and local government web resources and services.